Regional Weather Roundup
Issued by NWS

Home | Current Version | Previous Version | Graphics & Text | Print | Product List | Glossary On
Versions: 1 2 3 4 5 6 7 8 9 10 11 12 13 14 15 16 17 18 19 20 21 22 23 24 25 26 27 28 29 30 31 32 33 34 35 36 37 38 39 40 41 42 43 44 45 46 47 48 49 50
000
ASUS45 KPSR 251800
RWRAZ

ARIZONA REGIONAL HOURLY WEATHER ROUNDUP
NATIONAL WEATHER SERVICE PHOENIX AZ
1100 AM MST SAT APR 25 2015

NOTE: FAIR INDICATES FEW OR NO CLOUDS BELOW 12,000 FEET WITH NO
SIGNIFICANT WEATHER AND/OR OBSTRUCTIONS TO VISIBILITY.

AZZ001>003-036-251900-
NORTHWEST ARIZONA

CITY           SKY/WX    TMP DP  RH WIND       PRES   REMARKS
KINGMAN        PTSUNNY   64  35  34 SW30G40   29.86S
6HR MIN TEMP:  47; 6HR MAX TEMP:  64;

$$

AZZ004>008-015-016-018-251900-
NORTH CENTRAL ARIZONA

CITY           SKY/WX    TMP DP  RH WIND       PRES   REMARKS
GRAND CANYON   CLOUDY    49  34  56 SW16G28   29.91F
6HR MIN TEMP:  41; 6HR MAX TEMP:  49;

WILLIAMS       CLOUDY    46  34  61 S21G26    30.00S
PRESCOTT       PTSUNNY   54  37  52 S22       29.95R
6HR MIN TEMP:  46; 6HR MAX TEMP:  57;

FLAGSTAFF      NOT AVBL
PAYSON         CLOUDY    54  39  58 S7        30.00S
PAGE           PTSUNNY   63  30  28 SW15G23   29.80F
6HR MIN TEMP:  52; 6HR MAX TEMP:  64; 6HR PCP: TRACE;

$$

AZZ009>014-017-251900-
NORTHEAST ARIZONA

CITY           SKY/WX    TMP DP  RH WIND       PRES   REMARKS
WINSLOW        NOT AVBL
SAINT JOHNS    MOSUNNY   64  27  24 W15G23    29.92F
6HR MIN TEMP:  39; 6HR MAX TEMP:  64;

WINDOW ROCK    PTSUNNY   53  32  44 SW12G20   29.95F
6HR MIN TEMP:  41; 6HR MAX TEMP:  55;

SHOW LOW       MOSUNNY   54  28  37 SW17G29   29.99S
$$

AZZ023-251900-
GREATER PHOENIX AREA

CITY           SKY/WX    TMP DP  RH WIND       PRES   REMARKS
PHOENIX        MOSUNNY   73  45  36 VRB3      29.88F
6HR MIN TEMP:  61; 6HR MAX TEMP:  75;

GLENDALE       PTSUNNY   72  46  40 S5        29.90F
DEER VALLEY    PTSUNNY   69  44  40 VRB6      29.89F
6HR MIN TEMP:  59; 6HR MAX TEMP:  69;

SCOTTSDALE     MOSUNNY   70  43  37 VRB5      29.91F
6HR MIN TEMP:  60; 6HR MAX TEMP:  71;

MESA-GATEWAY   MOSUNNY   70  45  40 CALM      29.92F
CHANDLER       PTSUNNY   73  45  35 SW6       29.90F
$$

AZZ027-028-251900-
SOUTHWEST MARICOPA COUNTY AND PINAL COUNTY

CITY           SKY/WX    TMP DP  RH WIND       PRES   REMARKS
CASA GRANDE    CLOUDY    73  43  33 SE3       29.89F
6HR MIN TEMP:  52; 6HR MAX TEMP:  73;

$$

AZZ503-504-507>509-251900-
SOUTHEAST ARIZONA

CITY           SKY/WX    TMP DP  RH WIND       PRES   REMARKS
TUCSON         SUNNY     71  37  28 SE5       29.95F
6HR MIN TEMP:  53; 6HR MAX TEMP:  72;

RYAN FIELD       N/A     73  39  29 E7        29.94F
NOGALES        SUNNY     70  28  21 SW14G20   29.98F
6HR MIN TEMP:  43; 6HR MAX TEMP:  71;

SAFFORD        SUNNY     68  36  30 CALM      29.92F
6HR MIN TEMP:  44; 6HR MAX TEMP:  69;

$$

AZZ020-021-025-026-031-251900-
SOUTHWEST ARIZONA

CITY           SKY/WX    TMP DP  RH WIND       PRES   REMARKS
YUMA           NOT AVBL
$$

CAZ031-033-041-043-047-048-061-251900-
SOUTHERN CALIFORNIA

CITY           SKY/WX    TMP DP  RH WIND       PRES   REMARKS
DOWNTOWN L.A.  PTSUNNY   66  49  54 VRB3      29.99S
6HR MIN TEMP:  57; 6HR MAX TEMP:  66;

L.A. AIRPORT   PTSUNNY   61  51  70 W14G20    30.01R
6HR MIN TEMP:  56; 6HR MAX TEMP:  62;

SAN DIEGO      CLOUDY    63  49  60 W7        30.04S
6HR MIN TEMP:  59; 6HR MAX TEMP:  64; 6HR PCP:  0.01;

BURBANK        CLOUDY    62  47  57 SE9       29.97F
6HR MIN TEMP:  56; 6HR MAX TEMP:  62;

ONTARIO        PTSUNNY   61  48  62 SW13G23   29.98S
6HR MIN TEMP:  56; 6HR MAX TEMP:  61;

RIVERSIDE      CLOUDY    63  49  60 W7        29.98F
6HR MIN TEMP:  56; 6HR MAX TEMP:  64;

PALM SPRINGS   MOSUNNY   72  42  34 VRB3      29.88S
6HR MIN TEMP:  61; 6HR MAX TEMP:  73;

EL CENTRO NAS  PTSUNNY   73  43  33 SW18      29.91S
6HR MIN TEMP:  62; 6HR MAX TEMP:  75;

IMPERIAL       CLOUDY    73  46  38 W15G24    29.88F
6HR MIN TEMP:  61; 6HR MAX TEMP:  73;

BLYTHE         CLOUDY    72  46  39 CALM      29.85F
6HR MIN TEMP:  57; 6HR MAX TEMP:  72;

$$

NVZ020-UTZ003-251900-
SOUTHERN NEVADA-UTAH

CITY           SKY/WX    TMP DP  RH WIND       PRES   REMARKS
LAS VEGAS      NOT AVBL
SALT LAKE CITY PTSUNNY   55  42  61 SE14G21   29.77F
6HR MIN TEMP:  42; 6HR MAX TEMP:  55;

$$

NMZ009-TXZ055-251900-
NEW MEXICO-WEST TEXAS

CITY           SKY/WX    TMP DP  RH WIND       PRES   REMARKS
ALBUQUERQUE    PTSUNNY   57  33  40 S8        29.93F
6HR MIN TEMP:  42; 6HR MAX TEMP:  57;

EL PASO        MOSUNNY   72  23  16 SW17G28   29.95F
6HR MIN TEMP:  54; 6HR MAX TEMP:  72;

$$


........................KEY........................
SKY/WX - SKY CONDITION/WEATHER
TMP    - TEMPERATURE IN FAHRENHEIT
DP     - DEW POINT IN FAHRENHEIT
RH     - RELATIVE HUMIDITY IN PERCENT
WIND   - DIRECTION AND SPEED IN MILES PER HOUR (MPH)
VRB    - VARIABLE WIND DIRECTION
PRES   - MEAN SEA LEVEL PRESSURE IN INCHES OF MERCURY
         F - FALLING PRESSURE   R - RISING PRESSURE
         S - STEADY PRESSURE
VSB    - VISIBILITY IN MILES
HX     - HEAT INDEX IN FAHRENHEIT
WCI    - WIND CHILL INDEX IN FAHRENHEIT
TC     - TEMPERATURE IN CELSIUS WHICH IS ALSO KNOWN AS
         TEMPERATURE IN CENTIGRADE
AFB    - AIR FORCE BASE
         LUKE AFB IS LUKE AIR FORCE BASE
         DAVIS-MONTHAN IS DAVIS-MONTHAN AIR FORCE BASE
NAS    - NAVAL AIR STATION
         EL CENTRO NAS IS EL CENTRO NAVAL AIR STATION
N/A    - NOT AVAILABLE



USA.gov is the U.S. government's official web portal to all federal, state and local government web resources and services.